Location: Gro�bocka
(50.8204°N, 11.9702°E)
Time: 07:51:05
(UTC+00:00)

Cosmos 2263 Rocket - Pass Details

Date: 29 October 2020
Orbit: 822 x 850 km, 71.0° (Epoch: 01 December)

Event Time Altitude Azimuth Distance (km) Brightness Sun altitude
Rises 18:36:55 0° 329° (NNW) 3,422 5.9 -26.5°
Reaches altitude 10° 18:39:22 10° 330° (NNW) 2,485 5.1 -26.9°
Maximum altitude 18:45:06 88° 245° (WSW) 858 2.1 -27.8°
Enters shadow 18:45:15 85° 180° (S) 860 2.1 -27.8°
